CW3742 Weather Reports


time (UTC)temp
C
wind
direction
speed
KPH
gust
KPH
rain 1hr
cm
rain 24hr
cm
rain mn
cm
humidity
%
barometer
mb
20260905080017 26 225 3.2 8.0 0.00 0.00 0.00 80 994.3
20260905073018 26 225 8.0 11.3 0.00 0.00 0.00 82 994.2
20260905070017 27 225 8.0 9.7 0.00 0.00 0.00 78 994.4
20260905063018 27 158 4.8 8.0 0.00 0.00 0.00 79 994.7
20260905060018 26 158 1.6 6.4 0.00 0.00 0.00 86 994.7
20260905053038 26 158 4.8 9.7 0.00 0.00 0.00 84 994.4
20260905050018 26 158 8.0 11.3 0.00 0.00 0.00 85 994.1
20260905043017 27 158 6.4 9.7 0.00 0.00 0.00 83 994.0
20260905040018 27 180 6.4 9.7 0.00 0.00 0.00 83 994.1
20260905033017 27 180 4.8 8.0 0.00 0.00 0.00 81 994.2
20260905030038 28 225 6.4 9.7 0.00 0.00 0.00 79 993.9
20260905023018 29 180 6.4 8.0 0.00 0.00 0.00 76 993.6
20260905020018 30 203 3.2 6.4 0.00 0.00 0.00 72 993.8
20260905013037 31 203 3.2 6.4 0.00 0.00 0.00 70 993.7
20260905010017 31 203 3.2 4.8 0.00 0.00 0.00 69 993.6
20260905003017 31 203 3.2 4.8 0.00 0.00 0.00 68 993.6
20260905000018 32 203 3.2 11.3 0.00 0.00 0.00 67 993.4
20260904233017 33 225 8.0 16.1 0.00 0.00 0.00 63 993.2
20260904230019 33 203 11.3 19.3 0.00 0.00 0.00 61 993.1
20260904223018 33 203 12.9 25.7 0.00 0.00 0.00 59 993.0
20260904220017 35 203 11.3 22.5 0.00 0.00 0.00 59 993.2
20260904213018 35 203 12.9 24.1 0.00 0.00 0.00 58 993.6
20260904210037 35 203 14.5 25.7 0.00 0.00 0.00 56 993.7
20260904203019 35 203 14.5 25.7 0.00 0.00 0.00 57 993.8
20260904200018 35 203 12.9 27.4 0.00 0.00 0.00 57 994.2
20260904193018 35 203 12.9 24.1 0.00 0.00 0.00 56 994.6
20260904190016 34 225 12.9 24.1 0.00 0.00 0.00 59 994.8
20260904183018 33 225 12.9 29.0 0.00 0.00 0.00 58 995.1
20260904180018 33 225 12.9 22.5 0.00 0.00 0.00 59 995.6
20260904173018 33 225 9.7 22.5 0.00 0.00 0.00 60 995.8
20260904170018 33 248 6.4 19.3 0.00 0.00 0.00 62 995.8
20260904163038 32 248 8.0 20.9 0.00 0.00 0.00 63 995.7
20260904160018 32 225 8.0 20.9 0.00 0.00 0.00 65 995.7
20260904153016 31 225 8.0 17.7 0.00 0.00 0.00 67 995.6
20260904150039 30 225 6.4 14.5 0.00 0.00 0.00 70 995.5
20260904143019 29 225 6.4 14.5 0.00 0.00 0.00 72 995.2
20260904140020 27 225 9.7 16.1 0.00 0.00 0.00 77 994.8
20260904133018 26 225 11.3 19.3 0.00 0.00 0.00 78 994.8
20260904130018 26 225 9.7 16.1 0.00 0.00 0.00 80 994.8
20260904123018 25 225 8.0 16.1 0.00 0.00 0.00 82 994.4
20260904120018 25 203 9.7 14.5 0.00 0.00 0.00 83 994.1
20260904113018 24 203 8.0 12.9 0.00 0.00 0.00 84 993.9
20260904110018 24 180 8.0 12.9 0.00 0.00 0.00 84 993.7
20260904103018 24 180 8.0 12.9 0.00 0.00 0.00 84 993.8
20260904100036 25 158 8.0 14.5 0.00 0.00 0.00 84 993.7
20260904093016 25 158 8.0 14.5 0.00 0.00 0.00 82 993.3
20260904090016 25 158 8.0 12.9 0.00 0.00 0.00 82 993.1
20260904083016 25 158 8.0 11.3 0.00 0.00 0.00 82 993.1